THOR ABLESTAR DEB, 3592

Orbit data source: Space-Track

THOR ABLESTAR DEB, 3592 is space debris in LEO originally from a launch on Thu, 24 Jun 1965 UTC launched from the Air Force Western Test Range (AFWTR). Debris objects in space refer to the collection of defunct objects orbiting the Earth. Examples of debris include non-operational satellites, rocket bodies, and fragments generated from explosions, collisions, or faulty payload assembly.

Loading next visibility...
Identifier
3592, 1965-048F
Orbit
LEO
Country
Flag of USUS
Related business
Manufacturer
Unknown
Mission
Spacecraft
Bus & Motor
Unknown
Mass
Unknown
Launch date (UTC)
1965-06-24 (60 years ago)
Launch vehicle
Unknown
Launch site
Air Force Western Test Range (AFWTR)
Object type
Payload
Rocket body
Debris
Shape & HBR
Unknown shape, 0.1 m
Radar Cross Section
Small (<0.1 m²)

Expand to show TLE details & history
Last TLE update: 1 day ago

TLE from 1 day ago
0 THOR ABLESTAR DEB
1 03592U 65048F   25311.98357615  .00000377  00000-0  46807-3 0  9993
2 03592  89.8763 290.5472 0058762 254.3930 170.1946 13.62574032989844
Epoch: 2025-11-07T23:36Z
TLE epoch observation values (Epoch: 2025-11-07T23:36:20.979Z)
Latitude
64.78328°
Longitude
-110.69859°
Altitude
1,080.508 km
Speed
7.297 km/s
True Right ascension
19h 23m 14s
True Declination
64° 39' 22"
Sunlit
Object was in daylight at epoch
Visualization orbit readout
Latitude
Unknown
Longitude
Unknown
Altitude
Unknown
Speed
Unknown
Apparent Right ascension
Unknown
Apparent Declination
Unknown
Sunlit
N/A
Visualization observer readout
Local Sidereal Time
02:18:50
Azimuth
Unknown
Elevation
Unknown
Doppler factor
Unknown
Orbital elements
Apogee altitude
1,066.876 km
Perigee altitude
979.891 km
Semi-major axis
7,401.521 km
Eccentricity
0.00588
Inclination
89.8763°
RAAN
290.5472°
Arg. of periapsis
254.393°
True anomaly
170.30845°
Mean anomaly
170.1946°
Eccentric anomaly
170.25161°
Mean motion
3.40849 °/min
Orbital period
105.62 mins
BSTAR
0.00046807
Loading maneuver chart data...
Computing Atmospheric mass density...

Documentation

Showing up to 5 results
|